Location: İstanbul
(41.0082°N, 28.9784°E)
Time: 22:19:10
(UTC+03:00)

CAS-6 - Pass Details

Date: 29 April 2024
Orbit: 607 x 628 km, 97.8° (Epoch: 29 May)

Event Time Altitude Azimuth Distance (km) Brightness Sun altitude
Exits shadow 22:54:21 37° 29° (NNE) 964 ? -26.9°
Drops below altitude 10° 22:57:19 10° 359° (N) 1,981 ? -27.2°
Sets 22:59:33 0° 354° (N) 2,888 ? -27.5°
